Location: B
(0.0000°N, 0.0000°E)
Time: 16:45:45
(UTC+02:00)

Daily predictions for brighter satellites

Satellite Brightness Start Highest point End
(mag) Time Altitude Azimuth Time Altitude Azimuth Time Altitude Azimuth
ARIANE DEB (SYLDA) 3.6 20:23:01 10° W 20:27:21 89° N 20:46:37 10° E
Cosmos 1271 Rocket 2.9 20:27:13 10° N 20:31:14 86° W 20:35:14 10° S
Meteor 1-27 4.5 20:26:42 10° N 20:32:15 77° W 20:37:54 10° S
CZ-2C R/B 3.1 20:27:50 10° S 20:32:19 55° WSW 20:36:50 10° NNW
Cosmos 2315 Rocket 4.2 20:26:24 10° N 20:32:41 83° W 20:39:03 10° S
ARIANE 5 DEB (SYLDA 5A) 1.8 20:28:48 10° W 20:32:43 63° N 20:34:43 10° E
Hubble Space Telescope 3.3 20:32:19 10° SW 20:33:33 11° SSW 20:34:47 10° S
Meteor 1-29 3.5 20:30:32 10° N 20:33:52 64° W 20:37:13 10° SSW
SEDSat Delta rocket 3.5 20:31:34 10° WSW 20:36:29 67° NW 20:40:48 10° NE
COSMOS 2455 3.2 20:31:00 10° NNW 20:36:59 72° WSW 20:42:58 10° SSE
Cosmos 1048 Rocket 4.4 20:32:42 10° N 20:37:44 44° ENE 20:42:42 10° SSE
ARIANE 5 DEB (SYLDA) 1.8 20:34:39 10° W 20:37:54 54° S 20:39:36 11° E
Cosmos 921 Rocket 3.2 20:33:48 10° SSW 20:37:58 75° W 20:42:11 10° N
Resurs 01 Rocket 2.9 20:36:50 10° SE 20:40:11 21° ENE 20:43:31 10° NNE
Meteor 1-28 Rocket 4.5 20:39:35 10° N 20:43:15 46° W 20:46:56 10° SSW
Cosmos 2242 Rocket 3.6 20:38:43 10° N 20:43:16 86° E 20:47:49 10° S
Cosmos 1340 Rocket 4.4 20:41:20 10° SE 20:43:34 15° E 20:45:46 10° ENE
Cosmos 2237 Rocket 4.0 20:40:05 10° NW 20:45:02 32° WSW 20:50:01 10° SSW
USA 238 DEB 4.0 20:46:44 10° N 20:53:26 49° ENE 20:59:54 11° SE
USA 238 4.0 20:46:52 10° N 20:53:33 48° ENE 20:59:57 11° SE
HJ-1C 4.4 20:51:54 14° SE 20:54:14 27° E 20:57:07 10° NNE
Cosmos 1484 Rocket 3.2 20:50:57 10° S 20:54:57 67° W 20:58:56 10° NNW
Helios 1A 3.5 20:51:51 10° SSE 20:55:46 39° ENE 20:59:39 10° N
Aureole 2 Rocket 3.0 20:56:15 10° N 21:00:35 66° ENE 21:04:58 10° SSE
SJ-6B 3.0 20:56:54 10° S 21:01:04 85° W 21:05:08 10° NNW
Meteor 2-10 4.2 20:56:35 10° N 21:01:55 75° W 21:07:05 10° S
NOAA 12 4.1 20:57:25 10° SSE 21:02:42 64° ENE 21:07:57 10° N
Aureole 3 Rocket 3.8 21:01:55 10° NNE 21:05:12 23° E 21:05:37 22° E
METEOR-M 4.4 21:04:25 11° SSE 21:09:12 45° ENE 21:14:15 10° N
USA 32 3.9 21:05:15 10° N 21:10:28 76° E 21:15:42 10° S
USA 234 3.4 21:04:46 10° NE 21:10:58 48° SE 21:17:10 10° SSW
Cosmos 1869 3.2 21:07:15 10° N 21:11:10 65° E 21:14:40 13° SSE
CZ-4B DEB 4.0 21:16:16 26° ENE 21:16:16 26° ENE 21:18:36 10° NNE
Nadezhda 1 Rocket 4.0 21:14:09 10° N 21:20:29 77° E 21:26:54 10° S
ISS -2.7 21:18:12 10° SW 21:21:24 55° NW 21:24:35 10° NNE
ARIANE 5 R/B 2.0 21:19:26 10° W 21:21:56 76° N 21:25:11 26° E
Cosmos 1703 Rocket 4.2 21:22:10 10° NNE 21:26:03 35° E 21:26:03 35° E
ATLAS 3B R/B 4.2 21:21:35 10° NW 21:27:01 30° WSW 21:32:26 10° S
ARIANE 5 R/B 3.6 21:17:12 10° W 21:28:11 45° NNW 21:29:49 25° NE
Cosmos 2251 Rocket 3.7 21:23:30 10° N 21:28:31 48° ENE 21:29:57 38° ESE
Cosmos 1709 Rocket 4.4 21:24:00 10° SSW 21:30:01 62° W 21:36:01 10° N
Cosmos 2056 Rocket 3.4 21:25:21 10° S 21:30:39 77° ESE 21:35:50 10° NNE
Cosmos 1371 Rocket 4.4 21:27:17 10° SSW 21:32:36 67° WNW 21:37:54 10° N
Cosmos 158 Rocket 3.7 21:28:47 10° NNW 21:33:39 87° W 21:36:16 28° S
Milstar 3 Cent rocket 4.3 21:18:59 10° SW 21:34:16 35° SSE 21:37:50 28° SE
Cosmos 1844 3.9 21:30:37 10° S 21:36:01 46° ESE 21:41:28 10° NNE
Cosmos 2074 Rocket 4.1 21:31:00 10° SSE 21:37:07 53° E 21:43:11 10° NNE
Cosmos 2181 Rocket 4.4 21:32:51 10° NNE 21:38:43 40° E 21:39:10 39° E
Resurs 1-3 3.7 21:39:01 30° S 21:41:09 74° WSW 21:45:30 10° NNW
FUSE 4.3 21:38:30 10° SW 21:43:33 46° SSE 21:43:33 46° SSE
Ariane H10 3.3 21:41:24 10° W 21:44:45 71° S 21:47:37 40° ESE
Cosmos 1844 Rocket 2.6 21:39:15 10° SSW 21:44:56 87° ESE 21:50:35 10° NNE
Meteor 2-3 Rocket 4.2 21:40:35 10° SSW 21:46:13 61° W 21:51:46 10° N
CZ-4C R/B 2.9 21:40:26 10° NNW 21:48:19 81° ENE 21:51:58 36° SSE
Cosmos 2221 Rocket 3.8 21:50:22 10° N 21:53:57 59° N 21:53:57 59° N
Nimbus 7 Rocket 4.5 21:49:38 10° NNE 21:54:58 56° E 21:54:58 56° E
Cosmos 1356 Rocket 3.8 21:57:07 61° NW 21:57:07 61° NW 22:00:51 10° N
Cosmos 389 Rocket 4.4 21:53:49 10° N 21:55:15 23° N 21:55:15 23° N
SWIFT 4.4 21:53:31 10° SW 21:54:51 18° SSW 21:54:51 18° SSW
Cosmos 1943 3.9 21:52:44 10° N 21:56:44 38° NE 21:56:44 38° NE
Ariane 42L R/B 3.2 21:53:45 10° W 21:57:57 42° WNW 21:57:57 42° WNW
USA 215 3.4 21:57:54 41° SSE 22:00:21 71° SW 22:06:51 10° NW
FENGYUN 3A 3.6 22:01:21 71° NE 22:01:21 71° NE 22:06:25 10° N
GPS 2-15 Rocket1 3.5 21:58:59 10° WNW 22:03:18 65° W 22:03:18 65° W
Meteor 1-26 Rocket 4.3 22:04:20 10° N 22:09:38 72° NNE 22:09:38 72° NNE
Resurs 01 Rocket 4.3 22:13:40 10° SW 22:16:23 16° WSW 22:19:05 10° WNW
Ariane H10-3 4.3 22:19:49 10° W 22:22:49 57° SW 22:22:49 57° SW
Centaur AC-69 4.5 22:14:02 10° WNW 22:25:02 47° N 22:25:02 47° N
ALOS 3.8 22:28:57 33° WNW 22:28:57 33° WNW 22:31:58 10° NNW
CZ-3C R/B 4.3 21:49:51 10° W 22:46:08 39° NW 22:52:11 19° NNE
Ariane H10 4.3 22:43:51 10° W 23:12:57 67° NW 23:12:57 67° NW
